Weather History for KQIR - November, 2011

Change the Weather History Date:

Saturday, November 5, 2011

  Actual Average Record
Temperature  
Mean Temperature 80 °F -  
Max Temperature 93 °F - - ()
Min Temperature 66 °F - - ()
Cooling Degree Days 14    
Growing Degree Days 30 (Base 50)    
Moisture  
Dew Point 56 °F    
Average Humidity 51    
Maximum Humidity 80    
Minimum Humidity 16    
Precipitation  
Precipitation 0.00 in - - ()
Sea Level Pressure  
Sea Level Pressure 29.96 in    
Wind  
Wind Speed 3 mph ()    
Max Wind Speed 14 mph    
Max Gust Speed -    
Visibility 6.2 miles    
Events      
T = Trace of Precipitation, MM = Missing Value Source: Averaged Metar Reports

Daily Weather History Graph

Daily Weather History Graph

Search for Another Location

Airport or City:

Trip Planner

Search our weather history database for the weather conditions in past years. The results will help you decide how hot, cold, wet, or windy it might be!

Date:

Astronomy

Nov. 05, 2011 Rise Set
Actual Time 5:44 AM AST 4:51 PM AST
Civil Twilight 5:20 AM AST 5:15 PM AST
Nautical Twilight 4:53 AM AST 5:42 PM AST
Astronomical Twilight 4:26 AM AST 6:09 PM AST
Moon 1:33 PM AST 1:01 AM AST
Length of Visible Light 11h 54m
Length of Day
11h 07m
Waxing Gibbous, 75% of the Moon is Illuminated
Nov 5
Waxing Gibbous
Nov 10
Full
Nov 18
Last Quarter
Nov 25
New
Dec 2
First Quarter

Hourly Weather History & Observations

Time (AST) Temp. Heat Index Dew Point Humidity Pressure Visibility Wind Dir Wind Speed Gust Speed Precip Events Conditions
12:55 AM 68.9 °F - 59.4 °F 72% 29.95 in 6.2 mi Calm Calm - N/A   Clear
1:55 AM 68.0 °F - 58.8 °F 72% 29.94 in 6.2 mi Calm Calm - N/A   Clear
2:55 AM 67.3 °F - 58.6 °F 74% 29.94 in 6.2 mi West 4.6 mph - N/A   Clear
3:55 AM 67.1 °F - 58.6 °F 74% 29.94 in 6.2 mi Calm Calm - N/A   Clear
4:55 AM 66.9 °F - 59.2 °F 76% 29.95 in 6.2 mi NNW 6.9 mph - N/A   Clear
5:55 AM 66.4 °F - 59.9 °F 80% 29.97 in 6.2 mi NW 5.8 mph - N/A   Clear
6:55 AM 68.4 °F - 61.2 °F 78% 29.99 in 6.2 mi Calm Calm - N/A   Clear
7:55 AM 74.7 °F - 63.3 °F 68% 30.01 in 6.2 mi Calm Calm - N/A   Clear
8:55 AM 82.6 °F 82.5 °F 58.5 °F 44% 30.02 in 6.2 mi NE 4.6 mph - N/A   Clear
9:55 AM 87.3 °F - 52.0 °F 30% 30.01 in 6.2 mi NE 5.8 mph - N/A   Clear
10:55 AM 89.4 °F - 47.8 °F 24% 29.98 in 6.2 mi Calm Calm - N/A   Clear
10:57 AM 89.6 °F - 48.2 °F 24% 29.98 in 6.2 mi Variable 5.8 mph - N/A   Light Drizzle
11:06 AM 91.4 °F - 46.4 °F 21% 29.97 in 6.2 mi ENE 4.6 mph - N/A   Clear
11:55 AM 92.3 °F - 45.9 °F 20% 29.95 in 6.2 mi NNE 3.5 mph - N/A   Partly Cloudy
12:55 PM 93.4 °F - 42.4 °F 17% 29.93 in 6.2 mi Variable 3.5 mph - N/A   Clear
1:55 PM 93.2 °F - 40.6 °F 16% 29.92 in 6.2 mi NE 4.6 mph - N/A   Clear
2:55 PM 93.2 °F - 40.6 °F 16% 29.91 in 6.2 mi ENE 11.5 mph - N/A   Clear
3:55 PM 90.7 °F - 41.0 °F 18% 29.92 in 6.2 mi East 13.8 mph - N/A   Clear
4:55 PM 87.1 °F - 47.1 °F 25% 29.94 in 6.2 mi East 8.1 mph - N/A   Clear
5:55 PM 82.6 °F 85.1 °F 66.7 °F 59% 29.96 in 6.2 mi East 9.2 mph - N/A   Clear
6:55 PM 80.8 °F 83.9 °F 69.3 °F 68% 29.98 in 6.2 mi ENE 5.8 mph - N/A   Clear
7:55 PM 80.2 °F 83.2 °F 69.4 °F 69% 29.99 in 6.2 mi ENE 3.5 mph - N/A   Clear
8:55 PM 80.1 °F 83.3 °F 70.2 °F 72% 29.97 in 6.2 mi NE 3.5 mph - N/A   Clear
9:55 PM 77.0 °F - 67.5 °F 72% 29.96 in 6.2 mi Calm Calm - N/A   Clear
11:55 PM 77.2 °F - 68.2 °F 74% 29.94 in 6.2 mi ENE 3.5 mph - N/A   Clear